Regional Weather Roundup
Issued by NWS

Home | Current Version | Previous Version | Text Only | Print | Product List | Glossary Off
Versions: 1 2 3 4 5 6 7 8 9 10 11 12 13 14 15 16 17 18 19 20 21 22 23 24 25 26 27 28 29 30 31 32 33 34 35 36 37 38 39 40 41 42 43 44 45 46 47 48 49 50

000
ASUS44 KMEG 072200
RWRTN
TENNESSEE HOURLY STATE WEATHER ROUNDUP
NATIONAL WEATHER SERVICE MEMPHIS TN
400 PM CST SUN FEB 07 2016

TNZ002-004-019-021-049-052-054-088>092-072300-
WEST TENNESSEE

CITY           SKY/WX    TMP DP  RH WIND       PRES   REMARKS
MEMPHIS INTL   PTSUNNY   58  29  33 SW14G22   30.02F
NWS MEMPHIS      N/A     56 N/A N/A MISG        N/A
JACKSON        MOSUNNY   56  24  29 SW15G24   30.00S
DYERSBURG      CLOUDY    55  28  35 SW15G25   30.00F
UNION CITY     SUNNY     54  30  40 SW12      29.96F
PARIS          SUNNY     52  25  35 SW14      29.97F
$$

TNZ008-025-027-028-033-062-065-066-072300-
NORTH MIDDLE TENNESSEE

CITY           SKY/WX    TMP DP  RH WIND       PRES   REMARKS
NASHVILLE      PTSUNNY   55  13  18 SW9G16    29.98F
CLARKSVILLE    MOSUNNY   54  21  27 SW13      29.96F
COOKEVILLE     SUNNY     52  25  35 SW9       29.97F
CROSSVILLE     SUNNY     50  18  28 W12G17    29.98F
$$

TNZ061-075-076-078-094-096-097-072300-
SOUTH MIDDLE TENNESSEE

CITY           SKY/WX    TMP DP  RH WIND       PRES   REMARKS
TULLAHOMA      SUNNY     52  18  25 SW10      30.00F
WINCHESTER     SUNNY     52  23  32 W10       30.01F
COLUMBIA       SUNNY     55  23  28 W8        29.98F
SHELBYVILLE    SUNNY     55  21  26 SW9       30.01S
$$

TNZ017-018-042-046-047-072300-
NORTHEAST TENNESSEE

CITY           SKY/WX    TMP DP  RH WIND       PRES   REMARKS
TRI CITIES     MOSUNNY   50  22  33 W8        29.95F
$$

TNZ012-013-036-069-073-074-072300-
CENTRAL EAST TENNESSEE

CITY           SKY/WX    TMP DP  RH WIND       PRES   REMARKS
KNOXVILLE      MOSUNNY   51  20  29 W3        29.98F
OAK RIDGE      SUNNY     53  22  29 S8        29.98F
GATLINBURG     CLEAR     52  19  28 S3        29.98S
$$

TNZ083-085-099-072300-
SOUTHEAST TENNESSEE

CITY           SKY/WX    TMP DP  RH WIND       PRES   REMARKS
CHATTANOOGA    PTSUNNY   56  17  21 SW12      30.00F
$$

SKY/WX REPORTED AS FAIR MEANS FEW OR NO CLOUDS BELOW
12 THOUSAND FEET.




USA.gov is the U.S. government's official web portal to all federal, state and local government web resources and services.